Location: *
(28.3744°N, 81.5492°W)
Time: 02:52:32
(UTC+00:00)

Cosmos 1066 Rocket - Pass Details

Date: 15 June 2025
Orbit: 797 x 893 km, 81.2° (Epoch: 11 July)

Event Time Altitude Azimuth Distance (km) Brightness Sun altitude
Rises 01:27:28 0° 186° (S) 3,455 7.1 -12.6°
Reaches altitude 10° 01:29:53 10° 187° (S) 2,530 6.4 -13.0°
Maximum altitude 01:35:40 87° 277° (W) 895 4.3 -14.1°
Drops below altitude 10° 01:41:33 10° 6° (N) 2,564 7.1 -15.1°
Sets 01:44:00 0° 7° (N) 3,505 7.9 -15.5°
